Погода Марково

Погода Марково : погода сейчас, прогноз погоды и архив. Всё, что Вы хотите узнать о погоде Марково!

Хотите узнать прогноз погоды Марково? Тогда Вам сюда: Погода Марково

Поиск расширенной информации на нашем сайте:

Другие новости

Новости СМИ2

Главная страница сайта

Новости сайта

03.07.2017

Напоминаем, что на нашем специализированном сайте Метеоцентр.Азия вы можете получить высокодетализированные автоматические прогнозы погоды по пунктам России, СНГ и мира в авиационном формате (включающие направление и скорость ветра, видимость, явления погоды, количество и форму облачности, нижнюю и верхнюю границу облачности).


Погода Марково - сегодня

Время (UTC), дата Ветер
(°,м/с) 
Видим.   Явления Облачность Т
(°С)
Тd
(°С)
f(%) Тe
(°С)
Pmin
(гПа)
dP
(гПа)
Po
(мм)
O2
(г/м3)
Тmin Tmax R s Состояние
почвы
21 14.02.18 тихо () {03}  20000 м    10/0 средняя, верхняя 
[Ac trans|Ci fib]
-14.5 -15.8 90 -15  990.9  2.1  741  317  -15.9         
00 15.02.18 тихо () {03}  20000 м    10/3 1000 м верхняя 
[Sc|Cs]
-11.6 -12.9 90 -12  993.4  2.5  743  314           
03 15.02.18 290 (З) 1{02}  0500 м  переохл. туман  10/0 средняя, верхняя 
[Ac trans|Cs]
-7.4 -8.3 93 -7  995.2  1.9  744  309           
09 15.02.18 090 (В) 1{02}  2000 м  дымка  10/0 средняя 
[Ac und]
-8.2 -8.8 95 -8  1001.3  749  312           
15 15.02.18 360 (С) 1{02}  4000 м  в посл. час туман  10/10 300 м 
[St]
-13.5 -14.8 90 -13  1005.1  1.5  751  320           
18 15.02.18 330 (СЗ) 1{02}  10 км  снежные кристаллы{туман}  10/0 средняя, верхняя 
[Ac trans|Cs]
-17.5 -19.4 85 -18  1006  0.9  752  325  -17.5    0.0  68  равномерный
сухой снег
100% 
21 15.02.18 360 (С) 3{05}  20000 м    10/8 600 м средняя 
[Sc|Ac und]
-13.7 -15 90 -17  1005.6  -0.4  752  320           
06 16.02.18 030 (СВ) 5-11{13}  2000 м  снег  10/8 300 м средняя 
[Frnb|As op]
-5.1 -5.8 95 -9  999.3  -2.1  747  307    -5     
15 16.02.18 020 (С) 4{09}  0500 м  сильн. снег  10/8 300 м средняя 
[Frnb|As op]
-4.1 -4.6 96 -7  996.3  -1.1  745  305           
18 16.02.18 050 (СВ) 5-10{11}  2000 м  снег  10/6 300 м средняя 
[Frnb|As op]
-3.3 -4 95 -7  996.2  -0.1  745  304  -5.2    77  равномерный
сухой снег
100% 
03 17.02.18 360 (С) 3{06}  20000 м    10/3 300 м средняя 
[St|Ac und]
-3.4 -4.8 90 -6  997.7  746  305           
09 17.02.18 030 (СВ) 1{04}  4000 м  слаб. снег  10/3 300 м средняя 
[Frnb|Ac As]
-4.7 -5.3 96 -4  1001.2  749  308           
15 17.02.18 040 (СВ) 2{05}  20000 м  в посл. час снег  10/4 600 м средняя, верхняя 
[Sc|Ac trans|Cs]
-6.1 -6.9 94 -8  1004.4  1.1  751  310           
18 17.02.18 050 (СВ) 1{05}  20000 м  {снег}  10/0 средняя, верхняя 
[Ac trans|Cs]
-7.5 -8.4 93 -7  1006  1.6  752  313  -8.4    0.8  74  равномерный
сухой снег
100% 
21 17.02.18 020 (С) 2{04}  20000 м    8/0 средняя, верхняя 
[Ac trans|Cc]
-8.1 -9.1 92 -10  1006.1  0.1  752  313  -10.2         
00 18.02.18 030 (СВ) 3{05}  20000 м    10/0 средняя, верхняя 
[Ac trans|Cs]
-6.7 -7.9 91 -9  1005.4  -0.7  752  311           
03 18.02.18 010 (С) 3{09}  20000 м    10/0 средняя 
[Ac und]
-4.1 -5.7 89 -6  1002.7  -2.7  750  307           
09 18.02.18 050 (СВ) 4{05}  2000 м  снег  10/5 300 м средняя 
[Frnb|As op]
-1.5 -2 96 -4  996.9  -2.4  745  302           
15 18.02.18 010 (С) 3{07}  4000 м  слаб. снег  10/6 300 м средняя 
[Frnb|As op]
-3.2 -3.6 97 -5  994.6  -1.1  744  304           
18 18.02.18 350 (С) 2{06}  2000 м  снег  10/5 300 м средняя 
[Frnb|As op]
-3.5 -4 96 -5  994.3  -0.3  743  304  -3.5    77  равномерный
сухой снег
100% 
03 19.02.18 250 (З) 2{04}  20000 м  {снег}  10/10 1000 м 
[Sc]
-4.5 -5.8 91 -6  997.5  0.6  746  306           
09 19.02.18 010 (С) 4{08}  2000 м  переохл. морось (гололёд)  10/10 300 м 
[St]
-5.8 -6.2 97 -9  997.2  -0.8  746  308           
18 19.02.18 360 (С) 7-12{13}  2000 м  снег{морось}  10/10 300 м 
[Ns]
-9 -10.1 92 -15  986.2  -4.5  737  308  -9.1    79  равномерный
сухой снег
100% 
06 20.02.18 340 (С) 8-15{17}  2000 м  слаб. снег  10/8 300 м средняя 
[Frnb|As op]
-10.7 -12 90 -17  983.8  2.7  736  310    -8.8     
15 20.02.18 250 (З) 3{06}  4000 м  слаб. снег  10/6 300 м средняя 
[Frnb|As op]
-15 -17 85 -19  997.7  4.7  746  319           
Время (UTC), дата Ветер
(°,м/с) 
Видим.   Явления Облачность Т
(°С)
Тd
(°С)
f(%) Тe
(°С)
Pmin
(гПа)
dP
(гПа)
Po
(мм)
O2
(г/м3)
Тmin Tmax R s Состояние
почвы

Для получения пояснительной информации подведите курсор к названию столбца.

ПОГОДА Марково - архив

Всё, что Вы хотите узнать о погоде Марково - удобно и подробно!

Выберите нужную дату (начиная с 1 января 2015* года) и нажмите кнопку "Найти".
Будут отображены архивные сводки погоды по пункту Марково, начиная с указанной даты.


Отображать данные в формате CSV (для использования в таблицах Excel)


Внимание! Наш архив погоды предназначен исключительно для личного некоммерческого использования в познавательных целях. Если Вам необходимы официальные справки о состоянии погоды (для производственных, юридических, коммерческих и т.п. целей), обращайтесь в органы Росгидромета.

*Примечание: данная дата относится к архиву по метеостанциям СССР (Россия, СНГ, Балтия).
Архив по метеостанциям Зарубежной Европы и Азии (кроме Китая) хранится 10 дней, по другим регионам земного шара (Китай, Африка, Америка, Австралия, Океания) - 1 день.

Марково - район местоположения метеостанции


Название, широта, долгота, высота метеостанции:
Марково 64.7°ш. 170.4°д. 26 м над ур. моря [Российская Федерация]

Дополнительная информация

В oтличие oт бoльшинства пoгoдных сайтoв мы публикуем пoдрoбную метеoинфoрмацию в детальнoм прoфессиoнальнoм фoрмате.

Характеристики температуры и влажнoсти вoздуха измеряются на высoте 2 м в тени вдали oт зданий и деревьев.
Скoрoсть ветра измеряется на высoте 10 м (на урoвне рoста челoвека скoрoсть ветра ниже в 1.5-2 раза). Если метеoстанция нахoдится в гoрoде или в лесу, тo скoрoсть ветра занижена на 2-4 м/с пo сравнению с oткрытым местoм. Скoрoсть ветра над акватoриями крупных рек и oзёр, а также на вершинах хoлмoв на 2-5 м/с выше, чем в oбычных услoвиях.
Атмoсфернoе давление в разных тoчках местнoсти мoжет значительнo oтличаться oт давления на метеoстанции, в зависимoсти oт услoвий рельефа (при пoдъёме на 10 м давление пoнижается примернo на 1 мм рт.ст.).